Tracking 18850 objects as of 22-Nov-2017
HD Live streaming from Space Station
objects crossing your sky now

CORVUS BC2

Track CORVUS BC2 now!
10-day predictions


NORAD ID: 42846
Int'l Code: 2017-042X
Perigee: 592.7 km
Apogee: 606.8 km
Inclination: 97.6 °
Period: 96.5 minutes
Semi major axis: 6970 km
RCS: Unknown
Launch date: July 14, 2017
Source: United States (US)
Launch site: TYURATAM MISSILE AND SPACE COMPLEX (TTMTR)
aabbcc
Your satellite tracking list
Your tracking list is empty




NASA's NSSDC Master Catalog

Two Line Element Set (TLE):
1 42846U 17042X   17326.61215953 +.00000468 +00000-0 +51817-4 0  9993
2 42846 097.6079 231.7628 0010110 156.1246 204.0444 14.91714830019579
Source of the keplerian elements: AFSPC